Location: Muncie
(40.1930°N, 85.3860°W)
Time: 23:13:34
(UTC-04:00)

Hubble Space Telescope - Pass Details

Date: 22 February 2026
Orbit: 476 x 478 km, 28.5° (Epoch: 16 March)

Event Time Altitude Azimuth Distance (km) Brightness Sun altitude
Exits shadow 06:50:02 - 237° (WSW) 2,203 3.4 -7.4°
Reaches altitude 10° 06:52:15 10° 214° (SW) 1,637 3.0 -7.0°
Maximum altitude 06:54:01 13° 186° (S) 1,464 3.0 -6.7°
Drops below altitude 10° 06:55:47 10° 158° (SSE) 1,637 3.7 -6.3°
Sets 06:58:58 0° 129° (SE) 2,514 5.3 -5.7°
